Data No,UTC Date,UTC Time,Latitude,Longitude,Course(deg),Temp(degC),Sal(psu),Fluor Int,Blank
194,2002/10/31,14:39:00, 10-59.650N,100-00.030E,110.7,29.796,31.9196,193,173
195,2002/10/31,14:40:00, 10-59.574N,100-00.239E,110.2,29.826,31.9209,193,173
196,2002/10/31,14:41:00, 10-59.499N,100-00.449E,109.9,29.857,31.9295,195,173
197,2002/10/31,14:42:00, 10-59.421N,100-00.661E,110.5,29.87,31.9392,193,173
198,2002/10/31,14:43:00, 10-59.345N,100-00.871E,110.4,29.867,31.9567,191,173
199,2002/10/31,14:44:00, 10-59.266N,100-01.081E,110.7,29.866,31.9761,193,173
200,2002/10/31,14:45:00, 10-59.188N,100-01.290E,110.5,29.888,31.9912,189,173
201,2002/10/31,14:46:00, 10-59.114N,100-01.501E,110.1,29.9,32.002,192,173
202,2002/10/31,14:47:00, 10-59.035N,100-01.712E,111,29.919,32.0163,197,173
210,2002/10/31,14:55:00, 10-58.277N,100-03.350E,115.1,29.966,32.1233,199,173
211,2002/10/31,14:56:00, 10-58.179N,100-03.546E,114.2,29.946,32.1262,198,173
212,2002/10/31,14:57:00, 10-58.086N,100-03.750E,114.7,29.953,32.1222,192,173
213,2002/10/31,14:58:00, 10-57.989N,100-03.955E,115.2,29.969,32.1111,189,173
214,2002/10/31,14:59:00, 10-57.895N,100-04.159E,116,29.97,32.11,193,173
215,2002/10/31,15:00:00, 10-57.801N,100-04.361E,114.6,29.976,32.1153,188,173
216,2002/10/31,15:01:00, 10-57.706N,100-04.566E,115,29.977,32.1208,197,173
217,2002/10/31,15:02:00, 10-57.613N,100-04.771E,115.5,29.99,32.1103,194,173
218,2002/10/31,15:03:00, 10-57.524N,100-04.973E,113,30.005,32.0938,193,173
219,2002/10/31,15:04:00, 10-57.432N,100-05.176E,115.4,29.995,32.086,200,173
220,2002/10/31,15:05:00, 10-57.330N,100-05.383E,116,29.984,32.0912,205,173
221,2002/10/31,15:06:00, 10-57.230N,100-05.590E,115.1,29.969,32.0831,196,173
222,2002/10/31,15:07:00, 10-57.135N,100-05.794E,115.2,29.943,32.0686,191,173
223,2002/10/31,15:08:00, 10-57.037N,100-06.000E,114.9,29.929,32.0339,221,173
224,2002/10/31,15:09:00, 10-56.946N,100-06.204E,115.6,29.939,31.9846,179,173
225,2002/10/31,15:10:00, 10-56.850N,100-06.412E,115.7,29.976,31.9387,203,173
226,2002/10/31,15:11:00, 10-56.758N,100-06.618E,114.6,29.98,31.9202,183,173
227,2002/10/31,15:12:00, 10-56.663N,100-06.823E,114.4,29.969,31.9386,185,173
228,2002/10/31,15:13:00, 10-56.572N,100-07.028E,113.9,29.971,31.9687,192,173
229,2002/10/31,15:14:00, 10-56.478N,100-07.232E,113.8,29.969,31.9878,190,173
230,2002/10/31,15:15:00, 10-56.384N,100-07.437E,114.2,30.009,32.0021,190,173
231,2002/10/31,15:16:00, 10-56.292N,100-07.643E,114,30.062,32.0127,182,173
232,2002/10/31,15:17:00, 10-56.202N,100-07.845E,114.3,30.066,32.0129,193,173
233,2002/10/31,15:18:00, 10-56.107N,100-08.053E,114.6,30.057,31.9964,194,173
234,2002/10/31,15:19:00, 10-56.012N,100-08.259E,114.1,30.054,31.96,189,173
235,2002/10/31,15:20:00, 10-55.918N,100-08.464E,114.2,30.045,31.9196,195,173
236,2002/10/31,15:21:00, 10-55.829N,100-08.670E,113.7,30.008,31.8867,193,173
237,2002/10/31,15:22:00, 10-55.738N,100-08.876E,114,29.995,31.8407,195,173
238,2002/10/31,15:23:00, 10-55.644N,100-09.081E,115.1,29.976,31.7808,192,173
239,2002/10/31,15:24:00, 10-55.553N,100-09.286E,114.1,29.978,31.7477,198,173
240,2002/10/31,15:25:00, 10-55.461N,100-09.492E,114.1,29.965,31.7177,191,173
241,2002/10/31,15:26:00, 10-55.367N,100-09.697E,115.3,29.949,31.6961,194,173
242,2002/10/31,15:27:00, 10-55.273N,100-09.902E,115.5,29.921,31.6678,194,173
243,2002/10/31,15:28:00, 10-55.180N,100-10.107E,114.9,29.893,31.6417,192,173
244,2002/10/31,15:29:00, 10-55.087N,100-10.313E,114.7,29.876,31.6068,196,173
245,2002/10/31,15:30:00, 10-54.993N,100-10.519E,114.9,29.882,31.5766,196,173
246,2002/10/31,15:31:00, 10-54.901N,100-10.725E,114.7,29.883,31.5608,193,173
247,2002/10/31,15:32:00, 10-54.810N,100-10.931E,113.7,29.865,31.5486,194,173
248,2002/10/31,15:33:00, 10-54.719N,100-11.136E,114.4,29.851,31.5225,192,173
249,2002/10/31,15:34:00, 10-54.627N,100-11.341E,113.3,29.81,31.4935,191,173
250,2002/10/31,15:35:00, 10-54.536N,100-11.547E,114,29.773,31.4766,199,173
251,2002/10/31,15:36:00, 10-54.445N,100-11.754E,113.2,29.774,31.4497,193,173
252,2002/10/31,15:37:00, 10-54.355N,100-11.960E,113.5,29.768,31.4258,191,173
253,2002/10/31,15:38:00, 10-54.264N,100-12.167E,113.5,29.737,31.4168,193,173
254,2002/10/31,15:39:00, 10-54.173N,100-12.373E,114.5,29.727,31.3984,193,173
255,2002/10/31,15:40:00, 10-54.084N,100-12.580E,113.4,29.738,31.3865,193,173
256,2002/10/31,15:41:00, 10-53.993N,100-12.787E,114.4,29.74,31.388,196,173
257,2002/10/31,15:42:00, 10-53.902N,100-12.992E,114.3,29.75,31.3941,189,173
258,2002/10/31,15:43:00, 10-53.810N,100-13.199E,113,29.761,31.3984,197,173
259,2002/10/31,15:44:00, 10-53.720N,100-13.405E,113.5,29.774,31.4122,193,173
260,2002/10/31,15:45:00, 10-53.632N,100-13.611E,112.7,29.781,31.4324,194,173
261,2002/10/31,15:46:00, 10-53.543N,100-13.816E,113.7,29.791,31.4462,188,173
262,2002/10/31,15:47:00, 10-53.453N,100-14.021E,113.3,29.799,31.451,190,173
263,2002/10/31,15:48:00, 10-53.365N,100-14.228E,114.1,29.799,31.4417,194,173
264,2002/10/31,15:49:00, 10-53.276N,100-14.434E,113.6,29.818,31.4197,196,173
265,2002/10/31,15:50:00, 10-53.185N,100-14.640E,114.6,29.834,31.3978,186,173
266,2002/10/31,15:51:00, 10-53.096N,100-14.845E,113.8,29.855,31.3891,194,173
267,2002/10/31,15:52:00, 10-53.007N,100-15.049E,113.3,29.872,31.4102,197,173
268,2002/10/31,15:53:00, 10-52.919N,100-15.255E,113.2,29.881,31.4464,199,173
269,2002/10/31,15:54:00, 10-52.832N,100-15.460E,113.8,29.884,31.4837,211,173
270,2002/10/31,15:55:00, 10-52.743N,100-15.665E,113.2,29.903,31.5118,197,173
271,2002/10/31,15:56:00, 10-52.654N,100-15.869E,112.8,29.918,31.5365,186,173
272,2002/10/31,15:57:00, 10-52.566N,100-16.074E,114.1,29.919,31.5653,192,173
273,2002/10/31,15:58:00, 10-52.479N,100-16.279E,113.2,29.909,31.5861,192,173
274,2002/10/31,15:59:00, 10-52.394N,100-16.484E,113.3,29.913,31.598,194,173
275,2002/10/31,16:00:00, 10-52.307N,100-16.689E,113,29.88,31.6014,197,173
276,2002/10/31,16:01:00, 10-52.219N,100-16.893E,112.6,29.892,31.6069,191,173
277,2002/10/31,16:02:00, 10-52.132N,100-17.098E,113.4,29.907,31.611,197,173
278,2002/10/31,16:03:00, 10-52.037N,100-17.301E,117.6,29.942,31.623,186,173
279,2002/10/31,16:04:00, 10-51.931N,100-17.497E,120.5,29.937,31.6641,243,173
280,2002/10/31,16:05:00, 10-51.821N,100-17.690E,121.3,29.946,31.6785,233,173
281,2002/10/31,16:06:00, 10-51.711N,100-17.880E,120.3,29.961,31.6812,189,173
282,2002/10/31,16:07:00, 10-51.603N,100-18.074E,119.5,29.963,31.6636,248,173
283,2002/10/31,16:08:00, 10-51.495N,100-18.266E,118.5,29.951,31.6515,180,173
284,2002/10/31,16:09:00, 10-51.386N,100-18.458E,119.6,29.958,31.6332,197,173
285,2002/10/31,16:10:00, 10-51.276N,100-18.649E,118.9,29.948,31.6182,192,173
286,2002/10/31,16:11:00, 10-51.168N,100-18.841E,119.4,29.953,31.6015,191,173
287,2002/10/31,16:12:00, 10-51.060N,100-19.032E,119.3,29.953,31.5811,188,173
288,2002/10/31,16:13:00, 10-50.953N,100-19.224E,119.4,29.945,31.5636,196,173
289,2002/10/31,16:14:00, 10-50.847N,100-19.416E,120.4,29.935,31.5409,220,173
290,2002/10/31,16:15:00, 10-50.739N,100-19.607E,120.2,29.93,31.5235,247,173
291,2002/10/31,16:16:00, 10-50.631N,100-19.798E,120.1,29.93,31.509,   ----,173
292,2002/10/31,16:17:00, 10-50.524N,100-19.989E,120.9,29.921,31.5075,219,173
293,2002/10/31,16:18:00, 10-50.419N,100-20.180E,119.7,29.925,31.5018,184,173
294,2002/10/31,16:19:00, 10-50.309N,100-20.372E,119.3,29.935,31.5043,197,173
295,2002/10/31,16:20:00, 10-50.202N,100-20.562E,120.6,29.95,31.5039,200,173
296,2002/10/31,16:21:00, 10-50.091N,100-20.753E,120.4,29.949,31.5095,192,173
297,2002/10/31,16:22:00, 10-49.982N,100-20.943E,119.5,29.958,31.5154,236,173
298,2002/10/31,16:23:00, 10-49.875N,100-21.135E,119.8,29.964,31.5123,181,173
299,2002/10/31,16:24:00, 10-49.771N,100-21.325E,120.2,29.976,31.5135,195,173
300,2002/10/31,16:25:00, 10-49.666N,100-21.514E,118.7,29.98,31.5111,205,173
301,2002/10/31,16:26:00, 10-49.552N,100-21.704E,120.4,29.977,31.5168,189,173
302,2002/10/31,16:27:00, 10-49.441N,100-21.894E,118.7,29.973,31.5127,183,173
303,2002/10/31,16:28:00, 10-49.329N,100-22.083E,119.2,29.971,31.5071,191,173
304,2002/10/31,16:29:00, 10-49.218N,100-22.274E,121.3,29.969,31.5062,194,173
305,2002/10/31,16:30:00, 10-49.108N,100-22.465E,118.9,29.961,31.5081,179,173
306,2002/10/31,16:31:00, 10-48.999N,100-22.655E,121.4,29.964,31.5142,190,173
307,2002/10/31,16:32:00, 10-48.892N,100-22.845E,122.6,29.953,31.5194,186,173
308,2002/10/31,16:33:00, 10-48.775N,100-23.033E,120.7,29.956,31.53,192,173
309,2002/10/31,16:34:00, 10-48.659N,100-23.219E,120.5,29.964,31.5384,195,173
310,2002/10/31,16:35:00, 10-48.546N,100-23.408E,122.5,29.959,31.5443,175,173
311,2002/10/31,16:36:00, 10-48.430N,100-23.595E,121.3,29.951,31.5534,191,173
312,2002/10/31,16:37:00, 10-48.315N,100-23.782E,121.5,29.948,31.5635,187,173
313,2002/10/31,16:38:00, 10-48.201N,100-23.971E,122.1,29.949,31.5778,195,173
314,2002/10/31,16:39:00, 10-48.087N,100-24.159E,120.8,29.944,31.6037,190,173
315,2002/10/31,16:40:00, 10-47.973N,100-24.346E,121,29.945,31.6204,198,173
316,2002/10/31,16:41:00, 10-47.858N,100-24.532E,121.8,29.936,31.6443,189,173
317,2002/10/31,16:42:00, 10-47.746N,100-24.720E,120.9,29.948,31.6653,194,173
318,2002/10/31,16:43:00, 10-47.632N,100-24.908E,120.6,29.938,31.6916,191,173
319,2002/10/31,16:44:00, 10-47.515N,100-25.093E,122.2,29.94,31.7055,196,173
320,2002/10/31,16:45:00, 10-47.401N,100-25.281E,122.2,29.949,31.7123,194,173
321,2002/10/31,16:46:00, 10-47.290N,100-25.469E,122,29.957,31.7193,191,173
322,2002/10/31,16:47:00, 10-47.172N,100-25.654E,122.3,29.974,31.7172,189,173
323,2002/10/31,16:48:00, 10-47.062N,100-25.841E,121.8,30.003,31.729,196,173
324,2002/10/31,16:49:00, 10-46.950N,100-26.031E,120.7,30.01,31.7359,201,173
325,2002/10/31,16:50:00, 10-46.832N,100-26.217E,122.4,30.031,31.7509,188,173
326,2002/10/31,16:51:00, 10-46.715N,100-26.403E,121.9,30.044,31.7641,192,173
327,2002/10/31,16:52:00, 10-46.602N,100-26.589E,120,30.055,31.7775,196,173
328,2002/10/31,16:53:00, 10-46.489N,100-26.775E,121.5,30.066,31.7837,186,173
329,2002/10/31,16:54:00, 10-46.374N,100-26.962E,119,30.082,31.7974,194,173
330,2002/10/31,16:55:00, 10-46.261N,100-27.150E,120.8,30.092,31.8059,194,173
331,2002/10/31,16:56:00, 10-46.147N,100-27.338E,121.5,30.1,31.8224,191,173
332,2002/10/31,16:57:00, 10-46.031N,100-27.522E,123.2,30.105,31.8412,   ----,173
333,2002/10/31,16:58:00, 10-45.915N,100-27.708E,121.6,30.111,31.8483,234,173
334,2002/10/31,16:59:00, 10-45.805N,100-27.897E,121.1,30.112,31.8593,   ----,173
335,2002/10/31,17:00:00, 10-45.695N,100-28.086E,120.6,30.21,31.8646,192,173
336,2002/10/31,17:01:00, 10-45.586N,100-28.275E,120.5,30.123,31.8775,188,173
337,2002/10/31,17:02:00, 10-45.475N,100-28.465E,119.1,30.127,31.8832,185,173
338,2002/10/31,17:03:00, 10-45.375N,100-28.659E,117.5,30.13,31.8913,194,173
339,2002/10/31,17:04:00, 10-45.277N,100-28.855E,117.5,30.119,31.8914,189,173
340,2002/10/31,17:05:00, 10-45.177N,100-29.051E,118.1,30.111,31.8934,190,173
341,2002/10/31,17:06:00, 10-45.078N,100-29.249E,117.6,30.127,31.896,192,173
342,2002/10/31,17:07:00, 10-44.978N,100-29.446E,117.7,30.139,31.8992,201,173
343,2002/10/31,17:08:00, 10-44.878N,100-29.641E,117.6,30.164,31.9106,202,173
344,2002/10/31,17:09:00, 10-44.777N,100-29.837E,116.7,30.158,31.9248,195,173
345,2002/10/31,17:10:00, 10-44.678N,100-30.034E,117.8,30.159,31.9359,196,173
346,2002/10/31,17:11:00, 10-44.586N,100-30.232E,111.2,30.175,31.951,186,173
347,2002/10/31,17:12:00, 10-44.515N,100-30.437E,108.1,30.184,31.9639,186,173
348,2002/10/31,17:13:00, 10-44.447N,100-30.645E,108.3,30.198,32.0108,198,173
349,2002/10/31,17:14:00, 10-44.377N,100-30.854E,108.8,30.198,32.0233,194,173
350,2002/10/31,17:15:00, 10-44.306N,100-31.063E,109.3,30.193,32.0288,189,173
351,2002/10/31,17:16:00, 10-44.234N,100-31.272E,108.6,30.196,32.0337,209,173
352,2002/10/31,17:17:00, 10-44.164N,100-31.482E,108.9,30.201,32.0154,175,173
353,2002/10/31,17:18:00, 10-44.088N,100-31.688E,114,30.205,32.0156,190,173
354,2002/10/31,17:19:00, 10-43.991N,100-31.888E,117.5,30.202,32.0162,193,173
355,2002/10/31,17:20:00, 10-43.887N,100-32.083E,118,30.207,32.0248,193,173
356,2002/10/31,17:21:00, 10-43.783N,100-32.279E,118.2,30.195,32.0235,178,173
357,2002/10/31,17:22:00, 10-43.680N,100-32.474E,118.1,30.198,32.0225,193,173
358,2002/10/31,17:23:00, 10-43.582N,100-32.669E,117.3,30.205,32.0244,189,173
359,2002/10/31,17:24:00, 10-43.484N,100-32.868E,116,30.207,32.0242,188,173
360,2002/10/31,17:25:00, 10-43.385N,100-33.067E,116.5,30.215,32.031,188,173
361,2002/10/31,17:26:00, 10-43.287N,100-33.262E,117.2,30.217,32.0475,198,173
362,2002/10/31,17:27:00, 10-43.187N,100-33.460E,117.4,30.211,32.057,195,173
363,2002/10/31,17:28:00, 10-43.089N,100-33.657E,117.1,30.221,32.0679,195,173
364,2002/10/31,17:29:00, 10-42.989N,100-33.853E,116.9,30.222,32.0751,194,173
365,2002/10/31,17:30:00, 10-42.891N,100-34.053E,116.7,30.227,32.0839,189,173
366,2002/10/31,17:31:00, 10-42.793N,100-34.251E,117.3,30.235,32.0891,183,173
367,2002/10/31,17:32:00, 10-42.693N,100-34.450E,115.6,30.248,32.0962,194,173
368,2002/10/31,17:33:00, 10-42.597N,100-34.644E,116.5,30.246,32.1059,186,173
369,2002/10/31,17:34:00, 10-42.496N,100-34.843E,117.8,30.238,32.1181,185,173
370,2002/10/31,17:35:00, 10-42.397N,100-35.042E,116.7,30.244,32.1163,261,173
371,2002/10/31,17:36:00, 10-42.301N,100-35.242E,115,30.244,32.1151,200,173
372,2002/10/31,17:37:00, 10-42.205N,100-35.441E,116.1,30.244,32.1151,192,173
373,2002/10/31,17:38:00, 10-42.106N,100-35.641E,116,30.244,32.112,205,173
374,2002/10/31,17:39:00, 10-42.004N,100-35.839E,116.7,30.246,32.1087,189,173
375,2002/10/31,17:40:00, 10-41.907N,100-36.037E,116.2,30.233,32.1088,   ----,173
376,2002/10/31,17:41:00, 10-41.808N,100-36.234E,117.7,30.237,32.1129,196,173
377,2002/10/31,17:42:00, 10-41.709N,100-36.434E,116.1,30.244,32.1052,   ----,173
378,2002/10/31,17:43:00, 10-41.612N,100-36.634E,116.3,30.248,32.1044,203,173
379,2002/10/31,17:44:00, 10-41.513N,100-36.835E,116.8,30.253,32.1007,202,173
380,2002/10/31,17:45:00, 10-41.413N,100-37.033E,116.8,30.265,32.1043,186,173
381,2002/10/31,17:46:00, 10-41.315N,100-37.232E,117.3,30.269,32.1016,187,173
382,2002/10/31,17:47:00, 10-41.216N,100-37.432E,116,30.275,32.1069,217,173
383,2002/10/31,17:48:00, 10-41.117N,100-37.632E,116.9,30.278,32.1174,190,173
384,2002/10/31,17:49:00, 10-41.018N,100-37.831E,116.4,30.279,32.121,199,173
385,2002/10/31,17:50:00, 10-40.917N,100-38.029E,116.5,30.27,32.1299,195,173
386,2002/10/31,17:51:00, 10-40.819N,100-38.228E,117,30.265,32.1331,194,173
387,2002/10/31,17:52:00, 10-40.720N,100-38.428E,116.4,30.259,32.1261,175,173
388,2002/10/31,17:53:00, 10-40.621N,100-38.628E,116.6,30.245,32.1217,201,173
389,2002/10/31,17:54:00, 10-40.521N,100-38.831E,115.8,30.243,32.1176,192,173
390,2002/10/31,17:55:00, 10-40.424N,100-39.030E,115.8,30.24,32.1173,196,173
391,2002/10/31,17:56:00, 10-40.325N,100-39.232E,116.9,30.23,32.1092,196,173
392,2002/10/31,17:57:00, 10-40.227N,100-39.433E,116.7,30.23,32.1065,198,173
393,2002/10/31,17:58:00, 10-40.130N,100-39.634E,117.2,30.215,32.0985,191,173
394,2002/10/31,17:59:00, 10-40.029N,100-39.833E,117.5,30.212,32.0965,195,173
395,2002/10/31,18:00:00, 10-39.930N,100-40.034E,116.9,30.21,32.0903,182,173
396,2002/10/31,18:01:00, 10-39.832N,100-40.235E,116.6,30.205,32.0879,195,173
397,2002/10/31,18:02:00, 10-39.732N,100-40.434E,118.1,30.205,32.08,191,173
398,2002/10/31,18:03:00, 10-39.625N,100-40.631E,119,30.207,32.0817,   ----,173
399,2002/10/31,18:04:00, 10-39.521N,100-40.828E,118.8,30.197,32.0751,192,173
400,2002/10/31,18:05:00, 10-39.412N,100-41.025E,118.1,30.193,32.0764,205,173
401,2002/10/31,18:06:00, 10-39.305N,100-41.222E,118.4,30.19,32.0696,249,173
402,2002/10/31,18:07:00, 10-39.199N,100-41.420E,117,30.19,32.0692,187,173
403,2002/10/31,18:08:00, 10-39.092N,100-41.618E,117.9,30.186,32.0621,244,173
404,2002/10/31,18:09:00, 10-38.985N,100-41.813E,118.4,30.182,32.0614,192,173
405,2002/10/31,18:10:00, 10-38.877N,100-42.011E,119.2,30.187,32.0649,201,173
406,2002/10/31,18:11:00, 10-38.768N,100-42.209E,118.7,30.178,32.0622,192,173
407,2002/10/31,18:12:00, 10-38.659N,100-42.405E,119.2,30.187,32.0651,178,173
408,2002/10/31,18:13:00, 10-38.554N,100-42.601E,118.1,30.179,32.0619,178,173
409,2002/10/31,18:14:00, 10-38.447N,100-42.798E,119.1,30.181,32.0603,190,173
410,2002/10/31,18:15:00, 10-38.341N,100-42.995E,118,30.181,32.0626,191,173
411,2002/10/31,18:16:00, 10-38.233N,100-43.194E,119.3,30.178,32.0594,193,173
412,2002/10/31,18:17:00, 10-38.125N,100-43.391E,118.7,30.167,32.0645,189,173
413,2002/10/31,18:18:00, 10-38.018N,100-43.589E,118.4,30.175,32.0615,183,173
414,2002/10/31,18:19:00, 10-37.910N,100-43.785E,119.2,30.158,32.0645,190,173
415,2002/10/31,18:20:00, 10-37.805N,100-43.981E,118.7,30.163,32.0608,188,173
416,2002/10/31,18:21:00, 10-37.697N,100-44.180E,119.3,30.178,32.0636,188,173
417,2002/10/31,18:22:00, 10-37.588N,100-44.378E,118.9,30.181,32.0655,197,173
418,2002/10/31,18:23:00, 10-37.478N,100-44.574E,119.7,30.162,32.0621,210,173
419,2002/10/31,18:24:00, 10-37.370N,100-44.772E,119.9,30.164,32.0619,183,173
420,2002/10/31,18:25:00, 10-37.262N,100-44.969E,119.4,30.175,32.0625,193,173
421,2002/10/31,18:26:00, 10-37.155N,100-45.166E,119.2,30.176,32.0581,191,173
422,2002/10/31,18:27:00, 10-37.047N,100-45.363E,119.3,30.178,32.0615,184,173
423,2002/10/31,18:28:00, 10-36.938N,100-45.560E,119.8,30.164,32.0717,190,173
424,2002/10/31,18:29:00, 10-36.830N,100-45.757E,119.5,30.154,32.0715,194,173
425,2002/10/31,18:30:00, 10-36.725N,100-45.954E,118.7,30.147,32.0756,178,173
426,2002/10/31,18:31:00, 10-36.617N,100-46.151E,119,30.139,32.0729,177,173
427,2002/10/31,18:32:00, 10-36.508N,100-46.349E,119.4,30.144,32.0751,189,173
428,2002/10/31,18:33:00, 10-36.400N,100-46.547E,118.7,30.138,32.0692,195,173
429,2002/10/31,18:34:00, 10-36.292N,100-46.744E,119.3,30.137,32.073,187,173
430,2002/10/31,18:35:00, 10-36.184N,100-46.940E,118.6,30.137,32.0695,184,173
431,2002/10/31,18:36:00, 10-36.076N,100-47.138E,119.6,30.137,32.0715,185,173
432,2002/10/31,18:37:00, 10-35.965N,100-47.334E,119.1,30.143,32.0659,186,173
433,2002/10/31,18:38:00, 10-35.856N,100-47.532E,118.9,30.137,32.0695,192,173
434,2002/10/31,18:39:00, 10-35.750N,100-47.730E,118.6,30.135,32.0667,195,173
435,2002/10/31,18:40:00, 10-35.643N,100-47.929E,118.3,30.141,32.0636,182,173
436,2002/10/31,18:41:00, 10-35.535N,100-48.126E,118.6,30.143,32.0675,187,173
437,2002/10/31,18:42:00, 10-35.428N,100-48.325E,118,30.127,32.0637,194,173
438,2002/10/31,18:43:00, 10-35.319N,100-48.522E,119.2,30.128,32.0627,178,173
439,2002/10/31,18:44:00, 10-35.210N,100-48.719E,118,30.13,32.0569,198,173
440,2002/10/31,18:45:00, 10-35.102N,100-48.917E,119.3,30.126,32.0584,186,173
441,2002/10/31,18:46:00, 10-34.991N,100-49.114E,119.6,30.129,32.0516,191,173
442,2002/10/31,18:47:00, 10-34.883N,100-49.309E,119.1,30.122,32.0538,187,173
443,2002/10/31,18:48:00, 10-34.776N,100-49.505E,119.1,30.124,32.0579,196,173
444,2002/10/31,18:49:00, 10-34.668N,100-49.704E,120,30.124,32.0509,189,173
445,2002/10/31,18:50:00, 10-34.559N,100-49.898E,118.9,30.115,32.0504,187,173
446,2002/10/31,18:51:00, 10-34.449N,100-50.094E,118.5,30.121,32.046,   ----,173
447,2002/10/31,18:52:00, 10-34.342N,100-50.290E,119.4,30.118,32.0492,187,173
448,2002/10/31,18:53:00, 10-34.234N,100-50.487E,119.3,30.115,32.0448,   ----,173
449,2002/10/31,18:54:00, 10-34.125N,100-50.684E,119.2,30.125,32.0491,184,173
450,2002/10/31,18:55:00, 10-34.016N,100-50.880E,119.2,30.11,32.0447,   ----,173
451,2002/10/31,18:56:00, 10-33.908N,100-51.076E,118.3,30.121,32.047,   ----,173
452,2002/10/31,18:57:00, 10-33.799N,100-51.272E,117,30.124,32.0434,222,173
453,2002/10/31,18:58:00, 10-33.690N,100-51.469E,118.5,30.137,32.0458,190,173
454,2002/10/31,18:59:00, 10-33.581N,100-51.668E,119.4,30.128,32.0396,190,173
455,2002/10/31,19:00:00, 10-33.471N,100-51.865E,119.8,30.119,32.0386,174,173
456,2002/10/31,19:01:00, 10-33.360N,100-52.062E,119,30.121,32.0438,   ----,173
457,2002/10/31,19:02:00, 10-33.251N,100-52.259E,119,30.12,32.038,190,173
458,2002/10/31,19:03:00, 10-33.144N,100-52.454E,119,30.127,32.0397,185,173
459,2002/10/31,19:04:00, 10-33.033N,100-52.650E,119.3,30.124,32.0401,185,173
460,2002/10/31,19:05:01, 10-32.923N,100-52.848E,119.1,30.12,32.0361,   ----,173
461,2002/10/31,19:06:00, 10-32.811N,100-53.045E,118.7,30.126,32.036,188,173
462,2002/10/31,19:07:00, 10-32.702N,100-53.241E,118.6,30.136,32.0327,192,173
463,2002/10/31,19:08:00, 10-32.590N,100-53.439E,119.5,30.137,32.0382,199,173
464,2002/10/31,19:09:00, 10-32.477N,100-53.635E,119.5,30.146,32.041,182,173
465,2002/10/31,19:10:01, 10-32.367N,100-53.833E,119.5,30.151,32.0378,196,173
466,2002/10/31,19:11:00, 10-32.257N,100-54.029E,119.5,30.172,32.0406,194,173
467,2002/10/31,19:12:00, 10-32.144N,100-54.222E,119.4,30.175,32.0357,195,173
468,2002/10/31,19:13:00, 10-32.033N,100-54.419E,120.7,30.173,32.0361,185,173
469,2002/10/31,19:14:00, 10-31.924N,100-54.615E,120,30.177,32.0326,196,173
470,2002/10/31,19:15:00, 10-31.814N,100-54.809E,119.1,30.187,32.031,187,173
471,2002/10/31,19:16:00, 10-31.702N,100-55.005E,119.7,30.187,32.0282,196,173
472,2002/10/31,19:17:00, 10-31.590N,100-55.201E,119.8,30.185,32.0285,188,173
473,2002/10/31,19:18:01, 10-31.478N,100-55.395E,119.7,30.169,32.0251,194,173
474,2002/10/31,19:19:00, 10-31.366N,100-55.589E,119.3,30.148,32.0265,192,173
475,2002/10/31,19:20:00, 10-31.256N,100-55.785E,119.4,30.128,32.0142,199,173
476,2002/10/31,19:21:01, 10-31.142N,100-55.980E,119.4,30.145,32.0054,191,173
477,2002/10/31,19:22:00, 10-31.033N,100-56.175E,119.7,30.121,31.9995,183,173
478,2002/10/31,19:23:01, 10-30.919N,100-56.369E,119.7,30.116,32.0183,181,173
479,2002/10/31,19:24:00, 10-30.808N,100-56.565E,120.4,30.108,32.0274,196,173
480,2002/10/31,19:25:00, 10-30.697N,100-56.760E,119.9,30.11,32.0195,   ----,173
481,2002/10/31,19:26:00, 10-30.584N,100-56.955E,120.8,30.084,32.0181,191,173
482,2002/10/31,19:27:01, 10-30.473N,100-57.150E,119.9,30.09,32.0169,214,173
483,2002/10/31,19:28:01, 10-30.362N,100-57.344E,120.2,30.087,32.01,193,173
484,2002/10/31,19:29:00, 10-30.252N,100-57.540E,120.8,30.096,32.0107,191,173
485,2002/10/31,19:30:00, 10-30.139N,100-57.735E,120.7,30.082,32.0037,190,173
486,2002/10/31,19:31:01, 10-30.024N,100-57.931E,120.8,30.09,31.9995,189,173
487,2002/10/31,19:32:00, 10-29.911N,100-58.126E,121.3,30.066,31.9969,185,173
488,2002/10/31,19:33:00, 10-29.800N,100-58.322E,119,30.06,31.9932,196,173
489,2002/10/31,19:34:01, 10-29.689N,100-58.518E,120.5,30.067,31.9892,190,173
490,2002/10/31,19:35:00, 10-29.575N,100-58.711E,121.3,30.062,31.9846,205,173
491,2002/10/31,19:36:01, 10-29.459N,100-58.906E,119.5,30.071,31.9839,192,173
492,2002/10/31,19:37:00, 10-29.347N,100-59.100E,119.2,30.06,31.9847,186,173
493,2002/10/31,19:38:01, 10-29.236N,100-59.295E,119.1,30.072,31.9841,191,173
494,2002/10/31,19:39:00, 10-29.122N,100-59.490E,121.3,30.075,31.9907,190,173
495,2002/10/31,19:40:00, 10-29.010N,100-59.685E,120.1,30.068,31.9894,199,173
496,2002/10/31,19:41:01, 10-28.898N,100-59.880E,120.8,30.083,31.9932,189,173
497,2002/10/31,19:42:00, 10-28.785N,101-00.075E,119.7,30.063,31.9993,186,173
498,2002/10/31,19:43:01, 10-28.673N,101-00.270E,120,30.05,31.9941,194,173
499,2002/10/31,19:44:01, 10-28.559N,101-00.464E,120.6,30.043,31.9924,194,173
500,2002/10/31,19:45:00, 10-28.446N,101-00.659E,119.9,30.053,31.9867,199,173
501,2002/10/31,19:46:01, 10-28.334N,101-00.853E,121.2,30.031,31.9911,186,173
502,2002/10/31,19:47:00, 10-28.222N,101-01.047E,119.9,30.049,31.9936,185,173
503,2002/10/31,19:48:01, 10-28.110N,101-01.241E,120.1,30.034,31.9928,201,173
504,2002/10/31,19:49:00, 10-27.996N,101-01.436E,120.6,30.033,31.9992,205,173
505,2002/10/31,19:50:00, 10-27.883N,101-01.631E,121.3,30.032,32,195,173
506,2002/10/31,19:51:01, 10-27.773N,101-01.828E,121.5,30.055,32.0064,189,173
507,2002/10/31,19:52:00, 10-27.657N,101-02.021E,119.4,30.044,32.0127,188,173